Location: *
(51.8167°N, 12.5000°E)
Time: 06:46:11
(UTC+00:00)

ERS-1 Rocket - Pass Details

Date: 16 September 2019
Orbit: 754 x 757 km, 98.5° (Epoch: 18 October)

Event Time Altitude Azimuth Distance (km) Brightness Sun altitude
Exits shadow 20:00:24 53° 85° (E) 929 3.1 -23.2°
Maximum altitude 20:00:45 54° 68° (ENE) 916 3.1 -23.2°
Drops below altitude 10° 20:05:40 10° 352° (N) 2,295 6.1 -23.8°
Sets 20:08:01 0° 348° (NNW) 3,225 7.0 -24.1°
